DW8945 Weather Reports


time (UTC)temp
C
wind
direction
speed
KPH
gust
KPH
rain 1hr
cm
rain 24hr
cm
rain mn
cm
humidity
%
barometer
mb
20260507182853 19 300 3.2 16.1 0.00 0.00 0.00 33 1004.7
20260507182341 18 251 6.4 16.1 0.00 0.00 0.00 33 1004.7
20260507181844 18 302 3.2 19.3 0.00 0.00 0.00 32 1004.7
20260507181352 18 293 6.4 22.5 0.00 0.00 0.00 32 1004.8
20260507180842 18 310 9.7 22.5 0.00 0.00 0.00 32 1004.9
20260507180344 18 290 8.0 17.7 0.00 0.00 0.00 35 1004.9
20260507175849 18 355 3.2 12.9 0.00 0.00 0.00 36 1004.9
20260507175355 18 327 4.8 17.7 0.00 0.00 0.00 36 1004.9
20260507174842 18 333 8.0 17.7 0.00 0.00 0.00 36 1005.1
20260507174349 18 21 4.8 16.1 0.00 0.00 0.00 36 1005.0
20260507173855 18 309 4.8 16.1 0.00 0.00 0.00 38 1005.0
20260507173358 18 283 6.4 16.1 0.00 0.00 0.00 36 1005.0
20260507172900 18 323 4.8 16.1 0.00 0.00 0.00 37 1005.1
20260507172403 18 312 8.0 14.5 0.00 0.00 0.00 35 1005.2
20260507171846 18 327 6.4 12.9 0.00 0.00 0.00 36 1005.2
20260507171406 18 325 1.6 22.5 0.00 0.00 0.00 39 1005.1
20260507170913 17 336 4.8 22.5 0.00 0.00 0.00 37 1005.3
20260507170351 18 311 6.4 20.9 0.00 0.00 0.00 38 1005.3
20260507165843 18 340 3.2 20.9 0.00 0.00 0.00 40 1005.3
20260507165346 17 287 6.4 19.3 0.00 0.00 0.00 42 1005.4
20260507164850 17 289 6.4 19.3 0.00 0.00 0.00 44 1005.5
20260507164354 17 284 6.4 19.3 0.00 0.00 0.00 44 1005.4
20260507163842 17 291 4.8 16.1 0.00 0.00 0.00 45 1005.4
20260507163349 17 332 6.4 16.1 0.00 0.00 0.00 45 1005.6
20260507162915 17 283 4.8 14.5 0.00 0.00 0.00 47 1005.7
20260507162401 17 327 6.4 14.5 0.00 0.00 0.00 46 1005.6
20260507161905 17 46 1.6 17.7 0.00 0.00 0.00 47 1005.6
20260507161351 17 298 9.7 17.7 0.00 0.00 0.00 47 1005.7
20260507160858 17 284 6.4 12.9 0.00 0.00 0.00 48 1005.7
20260507160353 17 308 3.2 11.3 0.00 0.00 0.00 49 1005.9
20260507155919 17 295 1.6 12.9 0.00 0.00 0.00 51 1005.8
20260507155344 17 271 1.6 16.1 0.00 0.00 0.00 52 1005.8
20260507154849 17 281 6.4 16.1 0.00 0.00 0.00 51 1005.9
20260507154353 17 313 4.8 11.3 0.00 0.00 0.00 53 1005.9
20260507153813 16 306 4.8 14.5 0.00 0.00 0.00 58 1005.9
20260507152903 16 339 6.4 14.5 0.00 0.00 0.00 56 1006.1
20260507152350 16 319 6.4 16.1 0.00 0.00 0.00 56 1006.2
20260507151852 16 333 3.2 16.1 0.00 0.00 0.00 55 1006.2
20260507151359 16 340 3.2 14.5 0.00 0.00 0.00 58 1006.2
20260507150846 16 281 6.4 14.5 0.00 0.00 0.00 56 1006.2
20260507150347 16 312 3.2 11.3 0.00 0.00 0.00 58 1006.2
20260507145858 16 317 1.6 14.5 0.00 0.00 0.00 58 1006.2
20260507145344 16 290 4.8 14.5 0.00 0.00 0.00 58 1006.4
20260507144847 16 313 3.2 9.7 0.00 0.00 0.00 60 1006.4
20260507144414 16 313 0.0 6.4 0.00 0.00 0.00 60 1006.4
20260507143859 16 310 1.6 12.9 0.00 0.00 0.00 61 1006.5
20260507143359 15 312 3.2 19.3 0.00 0.00 0.00 61 1006.7
20260507142906 15 266 8.0 19.3 0.00 0.00 0.00 60 1006.7
20260507142350 15 302 0.0 11.3 0.00 0.00 0.00 63 1006.6
20260507141913 15 304 3.2 11.3 0.00 0.00 0.00 63 1006.7
20260507141358 15 292 3.2 11.3 0.00 0.00 0.00 62 1006.6
20260507140904 15 292 3.2 12.9 0.00 0.00 0.00 61 1006.6
20260507140414 15 340 4.8 14.5 0.00 0.00 0.00 62 1006.7
20260507135904 15 342 4.8 9.7 0.00 0.00 0.00 61 1006.7
20260507135348 15 63 1.6 6.4 0.00 0.00 0.00 64 1006.7
20260507134854 15 40 1.6 9.7 0.00 0.00 0.00 63 1006.7
20260507134400 15 46 3.2 17.7 0.00 0.00 0.00 64 1006.7
20260507133848 14 335 6.4 17.7 0.00 0.00 0.00 65 1006.6
20260507133352 14 311 3.2 14.5 0.00 0.00 0.00 68 1006.6
20260507132900 14 308 3.2 14.5 0.00 0.00 0.00 68 1006.7
20260507132346 13 338 3.2 11.3 0.00 0.00 0.00 72 1006.8
20260507131851 13 360 1.6 12.9 0.00 0.00 0.00 74 1006.8
20260507131354 13 303 6.4 12.9 0.00 0.00 0.00 76 1006.9
20260507130901 13 292 1.6 12.9 0.00 0.00 0.00 79 1007.0
20260507130422 12 312 4.8 11.3 0.00 0.00 0.00 81 1006.9
20260507125852 12 315 3.2 11.3 0.00 0.00 0.00 85 1006.8
20260507125410 12 319 3.2 9.7 0.00 0.00 0.00 87 1006.8
20260507124912 11 319 3.2 12.9 0.00 0.00 0.00 88 1007.1
20260507124357 11 300 6.4 12.9 0.00 0.00 0.00 89 1007.1
20260507123902 11 330 4.8 12.9 0.00 0.00 0.00 90 1007.1
20260507123422 11 311 4.8 12.9 0.00 0.00 0.00 91 1007.2
20260507122844 11 5 3.2 9.7 0.00 0.00 0.00 92 1007.1
20260507122350 10 317 4.8 9.7 0.00 0.00 0.00 92 1007.1
20260507121854 10 319 1.6 9.7 0.00 0.00 0.00 93 1007.0
20260507121354 10 319 4.8 9.7 0.00 0.00 0.00 92 1007.1
20260507120856 10 319 3.2 9.7 0.00 0.00 0.00 92 1007.1
20260507120354 10 319 3.2 9.7 0.00 0.00 0.00 93 1007.0
20260507115904 10 311 3.2 8.0 0.00 0.00 0.00 93 1006.9
20260507115349 10 311 1.6 8.0 0.00 0.00 0.00 93 1006.9
20260507114852 10 311 1.6 6.4 0.00 0.00 0.00 93 1007.0
20260507114355 10 311 0.0 6.4 0.00 0.00 0.00 93 1007.0
20260507113900 10 311 1.6 9.7 0.00 0.00 0.00 93 1007.1
20260507113359 10 311 3.2 9.7 0.00 0.00 0.00 93 1006.9
20260507112903 10 313 0.0 3.2 0.00 0.00 0.00 93 1006.9
20260507112424 10 313 0.0 4.8 0.00 0.00 0.00 93 1006.8
20260507111905 10 313 1.6 4.8 0.00 0.00 0.00 93 1006.9
20260507111349 9 313 0.0 3.2 0.00 0.00 0.00 93 1006.9
20260507110852 10 313 0.0 3.2 0.00 0.00 0.00 92 1006.9
20260507110351 10 313 0.0 3.2 0.00 0.00 0.00 92 1006.6
20260507105904 10 313 0.0 1.6 0.00 0.00 0.00 92 1006.5
20260507105350 10 313 0.0 1.6 0.00 0.00 0.00 92 1006.5
20260507104851 9 313 0.0 0.0 0.00 0.00 0.00 92 1006.6
20260507104357 9 313 0.0 4.8 0.00 0.00 0.00 92 1006.7
20260507103901 9 313 1.6 4.8 0.00 0.00 0.00 92 1006.9
20260507103404 9 314 0.0 3.2 0.00 0.00 0.00 92 1006.9
20260507102848 9 314 1.6 3.2 0.00 0.00 0.00 92 1007.0
20260507102354 9 314 0.0 3.2 0.00 0.00 0.00 92 1006.8
20260507101918 9 314 0.0 1.6 0.00 0.00 0.00 92 1006.5
20260507101359 9 314 0.0 1.6 0.00 0.00 0.00 91 1006.4
20260507100844 9 314 0.0 3.2 0.00 0.00 0.00 91 1006.4
20260507100406 9 314 0.0 8.0 0.00 0.00 0.00 91 1006.3
20260507095915 9 314 3.2 8.0 0.00 0.00 0.00 91 1006.4
20260507095357 9 314 3.2 6.4 0.00 0.00 0.00 91 1006.1
20260507094900 9 315 0.0 9.7 0.00 0.00 0.00 91 1006.1
20260507094405 9 313 3.2 8.0 0.00 0.00 0.00 91 1006.1
20260507093901 9 311 1.6 9.7 0.00 0.00 0.00 91 1006.1
20260507093345 10 312 3.2 12.9 0.00 0.00 0.00 91 1006.1
20260507092852 10 300 6.4 12.9 0.00 0.00 0.00 90 1006.1
20260507092355 10 324 3.2 9.7 0.00 0.00 0.00 91 1006.0
20260507091857 10 323 4.8 9.7 0.00 0.00 0.00 90 1006.0
20260507091403 10 317 3.2 8.0 0.00 0.00 0.00 90 1006.2
20260507090848 10 318 3.2 8.0 0.00 0.00 0.00 90 1006.2
20260507090345 10 316 1.6 8.0 0.00 0.00 0.00 90 1006.4
20260507085858 10 319 1.6 8.0 0.00 0.00 0.00 90 1006.4
20260507085402 10 317 3.2 9.7 0.00 0.00 0.00 90 1006.4
20260507084905 10 315 4.8 9.7 0.00 0.00 0.00 89 1006.3
20260507084349 10 316 3.2 9.7 0.00 0.00 0.00 89 1006.4
20260507083855 10 316 4.8 11.3 0.00 0.00 0.00 89 1006.4
20260507083355 11 318 3.2 11.3 0.00 0.00 0.00 89 1006.1
20260507082857 11 294 3.2 9.7 0.00 0.00 0.00 89 1006.0
20260507082401 11 291 3.2 9.7 0.00 0.00 0.00 88 1006.1
20260507081843 11 287 0.0 9.7 0.00 0.00 0.00 88 1006.0
20260507081350 11 276 0.0 11.3 0.00 0.00 0.00 87 1005.8
20260507080855 11 299 3.2 11.3 0.00 0.00 0.00 87 1005.9
20260507080353 11 325 3.2 12.9 0.00 0.00 0.00 86 1006.0
20260507075846 11 331 4.8 12.9 0.00 0.00 0.00 86 1006.2
20260507075352 11 315 4.8 14.5 0.00 0.00 0.00 86 1005.9
20260507074856 12 317 4.8 14.5 0.00 0.00 0.00 85 1006.0
20260507074402 12 340 3.2 12.9 0.00 0.00 0.00 85 1005.7
20260507073846 12 346 4.8 14.5 0.00 0.00 0.00 85 1005.8
20260507073349 12 301 6.4 14.5 0.00 0.00 0.00 84 1005.8
20260507072857 12 287 4.8 11.3 0.00 0.00 0.00 84 1005.7
20260507072345 12 298 4.8 11.3 0.00 0.00 0.00 84 1005.6
20260507071850 12 332 3.2 14.5 0.00 0.00 0.00 84 1005.2
20260507071418 12 331 3.2 14.5 0.00 0.00 0.00 84 1004.9
20260507070842 13 328 1.6 11.3 0.00 0.00 0.00 85 1004.9
20260507070356 13 329 3.2 11.3 0.00 0.00 0.00 85 1005.0
20260507065906 13 323 3.2 8.0 0.00 0.00 0.00 85 1005.2
20260507065353 13 321 1.6 6.4 0.00 0.00 0.00 85 1005.0
20260507064900 13 321 1.6 8.0 0.00 0.00 0.00 85 1005.0
20260507064345 13 320 1.6 8.0 0.00 0.00 0.00 85 1005.2
20260507063854 13 320 1.6 11.3 0.00 0.00 0.00 85 1005.2
20260507063359 13 325 4.8 12.9 0.00 0.00 0.00 85 1005.3
20260507062846 13 326 4.8 14.5 0.00 0.00 0.00 86 1005.3
20260507062413 13 331 4.8 14.5 0.00 0.00 0.00 86 1005.3
20260507061856 13 325 4.8 14.5 0.00 0.00 0.00 86 1005.1
20260507061342 13 329 3.2 9.7 0.00 0.00 0.00 86 1004.9
20260507060850 13 333 1.6 8.0 0.00 0.00 0.00 87 1004.8
20260507060351 13 329 1.6 8.0 0.00 0.00 0.00 87 1004.9
20260507055922 13 331 1.6 9.7 0.00 0.00 0.00 87 1005.2
20260507055350 13 332 3.2 9.7 0.00 0.00 0.00 87 1005.3
20260507054855 14 293 1.6 11.3 0.00 0.00 0.00 87 1005.2
20260507054341 14 288 4.8 16.1 0.00 0.00 0.00 87 1005.2
20260507053848 14 311 4.8 16.1 0.00 0.00 0.00 88 1005.5
20260507053349 14 302 0.0 8.0 0.00 0.00 0.00 89 1005.6
20260507052856 14 300 1.6 9.7 0.00 0.00 0.00 89 1005.4
20260507052344 14 300 3.2 9.7 0.00 0.00 0.00 89 1005.4
20260507051847 14 301 1.6 9.7 0.00 0.00 0.00 89 1005.3
20260507051351 14 295 4.8 9.7 0.00 0.00 0.00 89 1005.1
20260507050859 15 290 3.2 11.3 0.00 0.00 0.00 90 1004.9
20260507050342 15 283 1.6 14.5 0.00 0.00 0.00 90 1005.0
20260507045855 15 282 4.8 16.1 0.00 0.00 0.00 90 1005.1
20260507045342 15 312 3.2 16.1 0.00 0.00 0.00 91 1005.1
20260507044847 15 312 3.2 9.7 0.00 0.00 0.00 91 1005.2
20260507044353 15 317 1.6 16.1 0.00 0.00 0.00 92 1005.2
20260507043859 15 338 3.2 19.3 0.00 0.00 0.00 92 1005.3
20260507043404 15 303 8.0 19.3 0.00 0.00 0.00 92 1005.0
20260507042910 15 329 3.2 17.7 0.00 0.00 0.00 93 1004.9
20260507042414 15 305 4.8 9.7 0.00 0.00 0.00 93 1005.0
20260507041856 15 307 1.6 8.0 0.00 0.00 0.00 93 1005.0
20260507041421 15 312 0.0 8.0 0.00 0.00 0.00 93 1005.0
20260507040847 15 313 4.8 11.3 0.00 0.00 0.00 93 1005.0
20260507040422 15 305 1.6 8.0 0.00 0.00 0.00 94 1005.2
20260507035846 15 305 0.0 8.0 0.00 0.00 0.00 94 1005.3
20260507035354 15 304 1.6 8.0 0.00 0.00 0.00 94 1005.4
20260507034858 15 311 3.2 9.7 0.00 0.00 0.00 93 1005.4
20260507034401 15 310 3.2 9.7 0.00 0.00 0.00 93 1005.2
20260507033849 15 321 4.8 9.7 0.00 0.00 0.00 93 1005.1
20260507033353 15 285 1.6 9.7 0.00 0.00 0.00 93 1004.9
20260507032920 15 277 1.6 12.9 0.00 0.00 0.00 93 1004.8
20260507032347 15 272 3.2 14.5 0.00 0.00 0.00 93 1005.0
20260507031912 15 277 4.8 14.5 0.00 0.00 0.00 93 1004.8
20260507031358 15 279 4.8 12.9 0.00 0.00 0.00 94 1004.7
20260507030904 15 262 4.8 12.9 0.00 0.00 0.00 93 1004.6
20260507030345 15 238 1.6 11.3 0.00 0.00 0.00 93 1004.6
20260507025856 15 275 3.2 11.3 0.00 0.00 0.00 93 1004.6
20260507025400 15 228 4.8 11.3 0.00 0.00 0.00 93 1004.6
20260507024901 15 305 3.2 11.3 0.00 0.00 0.00 93 1004.5
20260507024348 15 261 3.2 11.3 0.00 0.00 0.00 93 1004.5
20260507023855 15 245 4.8 11.3 0.00 0.00 0.00 93 1004.6
20260507023400 15 309 3.2 9.7 0.00 0.00 0.00 94 1004.8
20260507022848 15 331 1.6 9.7 0.00 0.00 0.00 94 1004.8
20260507022349 15 244 3.2 11.3 0.00 0.00 0.00 94 1004.6
20260507021849 15 250 4.8 11.3 0.00 0.00 0.00 94 1004.5
20260507021354 15 257 3.2 9.7 0.00 0.00 0.00 94 1004.6
20260507020921 15 272 1.6 11.3 0.00 0.00 0.00 94 1004.7
20260507020355 15 236 4.8 11.3 0.00 0.00 0.00 94 1004.6
20260507015844 15 285 1.6 11.3 0.00 0.00 0.00 94 1004.7
20260507015410 15 254 3.2 6.4 0.00 0.00 0.00 94 1004.5
20260507014853 15 259 3.2 8.0 0.00 0.00 0.00 94 1004.6
20260507014357 15 275 3.2 8.0 0.00 0.00 0.00 94 1004.6
20260507013901 15 286 1.6 11.3 0.00 0.00 0.00 94 1004.6
20260507013403 15 214 4.8 11.3 0.00 0.00 0.00 93 1004.7
20260507012849 15 247 1.6 9.7 0.00 0.00 0.00 93 1004.7
20260507012354 15 202 6.4 11.3 0.00 0.00 0.00 93 1004.7
20260507011921 15 233 3.2 12.9 0.00 0.00 0.00 93 1004.9
20260507011345 15 227 1.6 12.9 0.00 0.00 0.00 93 1005.1
20260507010852 15 248 1.6 9.7 0.00 0.00 0.00 93 1005.0
20260507010351 15 297 3.2 11.3 0.00 0.00 0.00 93 1005.1
20260507005841 15 238 4.8 11.3 0.00 0.00 0.00 93 1005.1
20260507005347 15 224 3.2 11.3 0.00 0.00 0.00 93 1005.2
20260507004912 15 221 3.2 11.3 0.00 0.00 0.00 93 1005.2
20260507004354 15 232 4.8 11.3 0.00 0.00 0.00 93 1005.1
20260507003857 15 227 3.2 11.3 0.00 0.00 0.00 93 1005.1
20260507003358 15 227 3.2 12.9 0.00 0.00 0.00 93 1005.0
20260507002902 15 224 1.6 12.9 0.00 0.00 0.00 93 1005.0
20260507002347 15 227 4.8 12.9 0.00 0.00 0.00 93 1005.1
20260507001850 15 229 3.2 12.9 0.00 0.00 0.00 93 1005.0
20260507001355 15 209 1.6 11.3 0.00 0.00 0.00 93 1004.9
20260507000900 15 241 3.2 11.3 0.00 0.00 0.00 93 1004.8
20260507000343 15 231 4.8 11.3 0.00 0.00 0.00 93 1004.7
20260506235855 15 235 4.8 11.3 0.00 0.00 0.00 93 1004.6
20260506235401 15 250 4.8 11.3 0.00 0.00 0.00 92 1004.7
20260506234842 15 229 6.4 11.3 0.00 0.00 0.00 92 1004.7
20260506234410 15 220 6.4 11.3 0.00 0.00 0.00 92 1004.7
20260506233852 15 233 4.8 12.9 0.00 0.00 0.00 92 1004.8
20260506233353 15 304 3.2 12.9 0.00 0.00 0.00 92 1004.6
20260506232856 15 217 3.2 12.9 0.00 0.00 0.00 92 1004.6
20260506232343 15 245 3.2 12.9 0.00 0.00 0.00 92 1004.5
20260506231849 15 264 3.2 14.5 0.00 0.00 0.00 92 1004.5
20260506231356 15 234 6.4 14.5 0.00 0.00 0.00 92 1004.6
20260506230843 15 234 6.4 14.5 0.00 0.00 0.00 92 1004.6
20260506230344 15 237 3.2 11.3 0.00 0.00 0.00 92 1004.6
20260506225854 15 326 3.2 11.3 0.00 0.00 0.00 92 1004.6
20260506225342 15 257 3.2 11.3 0.00 0.00 0.00 92 1004.7
20260506224846 16 235 4.8 12.9 0.00 0.00 0.00 92 1004.6
20260506224351 16 186 3.2 12.9 0.00 0.00 0.00 92 1004.7
20260506223856 16 240 3.2 11.3 0.00 0.00 0.00 92 1004.6
20260506223421 16 246 4.8 19.3 0.00 0.00 0.00 92 1004.8
20260506222905 16 235 4.8 19.3 0.00 0.00 0.00 91 1004.8
20260506222351 16 221 6.4 12.9 0.00 0.00 0.00 92 1004.9
20260506221854 16 232 4.8 14.5 0.00 0.00 0.00 91 1005.0
20260506221400 16 238 6.4 17.7 0.00 0.00 0.00 91 1005.0
20260506220846 16 218 9.7 16.1 0.00 0.00 0.00 91 1005.1
20260506220404 16 236 3.2 16.1 0.00 0.00 0.00 91 1005.1
20260506215853 16 229 9.7 16.1 0.00 0.00 0.00 90 1005.1
20260506215400 16 234 3.2 17.7 0.00 0.00 0.00 90 1005.1
20260506214904 16 214 4.8 16.1 0.00 0.00 0.00 90 1005.3
20260506214349 16 230 8.0 16.1 0.00 0.00 0.00 89 1005.3
20260506213854 16 321 9.7 16.1 0.00 0.00 0.00 89 1005.4
20260506213355 16 223 4.8 14.5 0.00 0.00 0.00 89 1005.4
20260506212858 16 260 6.4 16.1 0.00 0.00 0.00 89 1005.6
20260506212345 16 230 9.7 22.5 0.00 0.00 0.00 89 1005.4
20260506211909 16 229 11.3 22.5 0.00 0.00 0.00 89 1005.4
20260506211352 16 251 8.0 16.1 0.00 0.00 0.00 89 1005.4
20260506210856 16 232 8.0 16.1 0.00 0.00 0.00 89 1005.4
20260506210349 16 273 4.8 16.1 0.00 0.00 0.00 89 1005.4
20260506205841 16 232 8.0 19.3 0.00 0.00 0.00 88 1005.5
20260506205342 16 220 6.4 19.3 0.00 0.00 0.00 88 1005.5
20260506204845 16 240 8.0 16.1 0.00 0.00 0.00 88 1005.6
20260506204352 16 252 3.2 19.3 0.00 0.00 0.00 88 1005.6
20260506203858 16 227 4.8 19.3 0.00 0.00 0.00 87 1005.7
20260506203344 16 309 4.8 16.1 0.00 0.00 0.00 87 1005.8
20260506202851 17 227 6.4 14.5 0.00 0.00 0.00 86 1005.7
20260506202357 17 245 4.8 14.5 0.00 0.00 0.00 86 1005.7
20260506201842 17 220 4.8 12.9 0.00 0.00 0.00 86 1005.7
20260506201348 17 229 4.8 11.3 0.00 0.00 0.00 85 1005.6
20260506200856 17 238 4.8 11.3 0.00 0.00 0.00 85 1005.6
20260506200357 17 248 3.2 14.5 0.00 0.00 0.00 85 1005.5
20260506195846 17 234 6.4 16.1 0.00 0.00 0.00 84 1005.5
20260506195413 17 217 4.8 14.5 0.00 0.00 0.00 83 1005.5
20260506194918 18 231 4.8 16.1 0.00 0.00 0.00 82 1005.6
20260506194342 18 236 4.8 16.1 0.00 0.00 0.00 81 1005.6
20260506193847 18 223 3.2 16.1 0.00 0.00 0.00 80 1005.8
20260506193352 18 240 3.2 16.1 0.00 0.00 0.00 79 1005.9
20260506192840 19 239 6.4 16.1 0.00 0.00 0.00 77 1005.6
20260506192347 19 186 4.8 16.1 0.00 0.00 0.00 75 1005.8
20260506191914 20 222 4.8 9.7 0.00 0.00 0.00 74 1005.7
20260506191417 20 222 3.2 11.3 0.00 0.00 0.00 72 1005.8
20260506190842 20 225 4.8 11.3 0.00 0.00 0.00 71 1005.7
20260506190339 20 225 4.8 12.9 0.00 0.00 0.00 70 1005.6
20260506185847 20 236 6.4 12.9 0.00 0.00 0.00 68 1005.7
20260506185353 20 216 4.8 16.1 0.00 0.00 0.00 68 1005.6
20260506184918 20 230 8.0 16.1 0.00 0.00 0.00 66 1005.7
20260506184401 21 218 9.7 19.3 0.00 0.00 0.00 66 1005.8
20260506183907 21 244 6.4 17.7 0.00 0.00 0.00 65 1005.8
20260506183350 21 220 6.4 17.7 0.00 0.00 0.00 64 1005.8